Погода в Тринидаде

Тринидад и Тобаго     10°22′26″N   61°15′42″W
темп.,
°C
ветер,
м/с
пор.,
м/с
влажн.,
%
обл.,
%
осадки,
мм/ч
давл.,
гПа
погр.,
м
6 мая, чт
чт623:00+23всв149792 0.3 1015152
02:00+22всв179747 0.3 1013192
05:00+22всв129785 0.4 101343
08:00+26всв278480 0.7 1014682
11:00+27всв357853 1.9 10141034
14:00+27всв3580100 4.7 1012974
17:00+25всв268897 2.1 1012611
20:00+23св289543 2.8 1014307
7 мая, пт
пт723:00+23св189712 0.0 1014273
02:00+22св16975 0.1 1012170
05:00+22св189797 0.4 1013258
08:00+25в38897 4.1 1014657
11:00+27в368251 2.7 1014990
14:00+27в378483 7.4 1012947
17:00+25в289041 3.3 1012716
20:00+23всв299648 4.9 1014402
8 мая, сб
сб823:00+24всв299691 1.6 1015442
02:00+23св119897 3.0 101353
05:00+23св1299100 5.9 101392
08:00+23в2797100 11.9 1015361
11:00+26в4785100 2.1 1016864
14:00+24всв2795100 3.1 1013573
17:00+24всв3894100 0.6 1013532
20:00+23всв3995100 1.5 1015600
9 мая, вс
вс923:00+23всв41094100 0.6 1016598
02:00+23всв2996100 3.1 1014506
05:00+23всв2997100 1.4 1015442
08:00+24в2895100 3.3 1016417
11:00+27в3880100 0.1 1016918
14:00+27в3779100 0.3 1014993
17:00+26в3783100 0.2 1013845
20:00+24всв289183 0.7 1015365
10 мая, пн
пн1023:00+24всв2109388 1.7 1016529
02:00+24всв2992100 3.8 1014535
05:00+24всв399299 0.4 1014566
08:00+26всв398451 0.6 1015912
11:00+28всв477662 1.4 10151154
14:00+28всв4776100 3.5 10131169
17:00+25всв3888100 1.9 1013742
20:00+24всв2994100 3.1 1014405